Cosmos 1606 Rocket - Orbit

View from above orbital plane
View from above orbital plane
View from above satellite
View from above satellite

Ground track
Ground track

The orbit data is extracted from the following two-line orbital elements,

1 15370U 84111B   13144.61838244  .00000410  00000-0  47690-4 0  5250
2 15370 082.5160 318.4579 0019895 265.8735 139.2174 14.82740770544117
Epoch (UTC): 24 May 2013 14:50:28
Eccentricity: 0.0019895
inclination: 82.5160°
perigee height: 607 km
apogee height: 634 km
right ascension of ascending node: 318.4579°
argument of perigee: 265.8735°
revolutions per day: 14.82740770
mean anomaly at epoch: 139.2174°
orbit number at epoch: 54411

The dashed part of the orbit path shows where the satellite is in the earth's shadow,  

Developed and maintained by Chris Peat, Heavens-Above GmbH. Please read the updated FAQ before sending e-mail. Imprint. DLR